Regional Weather Roundup
Issued by NWS

Home | Current Version | Previous Version | Text Only | Print | Product List | Glossary On
Versions: 1 2 3 4 5 6 7 8 9 10 11 12 13 14 15 16 17 18 19 20 21 22 23 24 25 26 27 28 29 30 31 32 33 34 35 36 37 38 39 40 41 42 43 44 45 46 47 48 49 50
000
ASUS43 KFSD 060402
RWRSD

WEATHER ROUNDUP FOR SOUTH DAKOTA
NATIONAL WEATHER SERVICE SIOUX FALLS SD
1000 PM CST MON DEC 05 2016

NOTE: "FAIR" INDICATES FEW OR NO CLOUDS BELOW 12,000 FEET WITH NO
SIGNIFICANT WEATHER AND/OR OBSTRUCTIONS TO VISIBILITY.


SDZ001>005-009-010-012>017-060500-
NORTHWEST AND NORTH CENTRAL SOUTH DAKOTA

CITY           SKY/WX    TMP DP  RH WIND       PRES   REMARKS
BUFFALO          N/A     10   3  73 NW30G46   29.80R WCI -12
FAITH            N/A      9   4  80 W29G38    29.84S WCI -13
MOBRIDGE       PTCLDY    14   6  70 W23G38    29.74F BLWGSNOWWCI  -5
$$

SDZ012>016-024>037-041>051-057-063-072>074-060500-
SOUTHWEST AND SOUTH CENTRAL SOUTH DAKOTA

CITY           SKY/WX    TMP DP  RH WIND       PRES   REMARKS
RAPID CTY ARPT CLEAR     16   7  67 N16       29.87R WCI   1
PIERRE         MOCLDY    16   8  71 NW38G45   29.85R BLWGSNOWWCI  -6
CUSTER         CLEAR     10  -1  61 NW10G17   29.74S WCI  -4
ELLSWORTH AFB  CLEAR     17   6  63 NW15      29.86R WCI   2
PHILIP         CLEAR     18   8  65 NW26G41   29.91R WCI  -1
PINE RIDGE     CLEAR     15  10  80 W8        29.89S WCI   4
SPEARFISH      MOCLDY    14   3  62 W17G26    29.89R WCI  -3
WINNER         FAIR      21  12  68 NW25G36   29.86R WCI   4
$$

SDZ004>011-016>023-039-040-060500-
NORTHEAST SOUTH DAKOTA

CITY           SKY/WX    TMP DP  RH WIND       PRES   REMARKS
ABERDEEN       PTCLDY    19  11  70 W18G39    29.68R WCI   4
WATERTOWN      CLOUDY    22  17  81 W26G37    29.65R WCI   5
SISSETON         N/A     27  20  75 W25G41    29.55R WCI  12
$$

SDZ017-020-022-023-036>040-048>070-060500-
SOUTHEAST SOUTH DAKOTA

CITY           SKY/WX    TMP DP  RH WIND       PRES   REMARKS
SIOUX FALLS    CLOUDY    28  21  75 W20G29    29.76R WCI  15
HURON          CLOUDY    20  13  74 NW25G38   29.80R WCI   2
CHAMBERLAIN    PTCLDY    22  13  69 NW22G35   29.87S WCI   6
MITCHELL       CLOUDY    25  17  72 NW20G30   29.83F WCI  11
YANKTON        CLOUDY   N/A N/A N/A W22G32    29.83R
$$

ABBREVIATIONS USED IN REMARKS
   TC - TEMPERATURE IN CELSIUS
  WCI - WIND CHILL INDEX
   HX - HEAT INDEX
  VSB - VISIBILITY





USA.gov is the U.S. government's official web portal to all federal, state and local government web resources and services.